Weather History for PABR - February, 2013

Change the Weather History Date:

Thursday, February 14, 2013

  Actual Average Record
Temperature  
Mean Temperature -20 °F -14 °F  
Max Temperature -17 °F -8 °F 35 °F (2006)
Min Temperature -22 °F -20 °F -50 °F (1955)
Degree Days  
Heating Degree Days 85 79  
Month to date heating degree days 1186 1106  
Since 1 July heating degree days 10831 11742  
Cooling Degree Days 0    
Month to date cooling degree days 0  
Year to date cooling degree days 0  
Moisture  
Dew Point -25 °F    
Average Humidity 0    
Maximum Humidity 0    
Minimum Humidity 0    
Precipitation  
Precipitation 0.00 in 0.01 in 0.23 in (1933)
Month to date precipitation T 0.07  
Year to date precipitation 0.06 0.20  
Snow  
Snow 0.00 in 0.10 in 2.50 in (1933)
Month to date snowfall 0.4 1.3  
Since 1 July snowfall 41.7 27.7  
Snow Depth 6.00 in    
Sea Level Pressure  
Sea Level Pressure 30.06 in    
Wind  
Wind Speed 14 mph (NE)    
Max Wind Speed 20 mph    
Max Gust Speed 24 mph    
Visibility 3 miles    
Events      
T = Trace of Precipitation, MM = Missing Value Source: NWS Daily Summary

Daily Weather History Graph

Daily Weather History Graph

Search for Another Location

Airport or City:

Trip Planner

Search our weather history database for the weather conditions in past years. The results will help you decide how hot, cold, wet, or windy it might be!

Date:

Astronomy

Feb. 14, 2013 Rise Set
Actual Time 10:15 AM AKST 5:09 PM AKST
Civil Twilight 8:59 AM AKST 6:24 PM AKST
Nautical Twilight 7:42 AM AKST 7:41 PM AKST
Astronomical Twilight 6:27 AM AKST 8:57 PM AKST
Moon 8:48 AM AKST (2/14) 12:43 AM AKST (2/14)
Length of Visible Light 9h 24m
Length of Day
6h 53m
Waxing Crescent, 23% of the Moon is Illuminated
Feb 14
Waxing Crescent
Feb 17
First Quarter
Feb 25
Full
Mar 4
Last Quarter
Mar 11
New

Hourly Weather History & Observations

Time (AKST) Temp. Windchill Dew Point Humidity Pressure Visibility Wind Dir Wind Speed Gust Speed Precip Events Conditions
12:09 AM -20.2 °F -43.4 °F -25.6 °F 76% 30.09 in 2.0 mi ENE 12.7 mph - N/A   Clear
12:45 AM -20.2 °F -44.4 °F -25.6 °F 76% 30.09 in 2.0 mi ENE 13.8 mph - N/A   Scattered Clouds
12:53 AM -20.0 °F -43.2 °F -26.0 °F 74% 30.10 in 2.0 mi ENE 12.7 mph 20.7 mph N/A   Scattered Clouds
1:11 AM -20.2 °F -44.4 °F -25.6 °F 76% 30.09 in 3.0 mi ENE 13.8 mph - N/A   Partly Cloudy
1:45 AM -20.2 °F -43.4 °F -25.6 °F 76% 30.09 in 1.8 mi ENE 12.7 mph - N/A   Partly Cloudy
1:53 AM -20.9 °F -46.2 °F -26.0 °F 77% 30.09 in 1.8 mi ENE 15.0 mph - N/A   Partly Cloudy
2:53 AM -20.0 °F -44.1 °F -26.0 °F 74% 30.09 in 1.5 mi ENE 13.8 mph - N/A   Scattered Clouds
3:15 AM -20.2 °F -43.4 °F -25.6 °F 76% 30.08 in 1.8 mi ENE 12.7 mph - N/A   Scattered Clouds
4:53 AM -20.0 °F -45.0 °F -26.0 °F 74% 30.08 in 1.5 mi ENE 15.0 mph - N/A   Scattered Clouds
5:17 AM -20.2 °F -45.2 °F -25.6 °F 76% 30.06 in 1.8 mi ENE 15.0 mph - N/A   Scattered Clouds
5:53 AM -20.9 °F -45.3 °F -26.0 °F 77% 30.08 in 1.8 mi ENE 13.8 mph - N/A   Scattered Clouds
5:55 AM -20.2 °F -45.2 °F -27.4 °F 69% 30.07 in 2.0 mi ENE 15.0 mph - N/A   Overcast
6:51 AM -20.2 °F -45.2 °F -25.6 °F 76% 30.06 in 1.8 mi ENE 15.0 mph - N/A   Scattered Clouds
6:53 AM -20.9 °F -46.2 °F -27.0 °F 73% 30.07 in 1.8 mi ENE 15.0 mph - N/A   Scattered Clouds
7:53 AM -20.9 °F -46.2 °F -27.0 °F 73% 30.07 in 1.8 mi ENE 15.0 mph - N/A   Scattered Clouds
8:12 AM -20.2 °F -46.8 °F -27.4 °F 69% 30.06 in 2.0 mi ENE 17.3 mph - N/A   Scattered Clouds
8:53 AM -20.9 °F -45.3 °F -27.0 °F 73% 30.07 in 3.0 mi ENE 13.8 mph - N/A   Scattered Clouds
9:53 AM -20.9 °F -46.2 °F -27.0 °F 73% 30.07 in 3.0 mi ENE 15.0 mph - N/A   Partly Cloudy
10:30 AM -20.2 °F -44.4 °F -27.4 °F 69% 30.06 in 2.0 mi NE 13.8 mph 20.7 mph N/A   Scattered Clouds
10:53 AM -20.9 °F -47.0 °F -27.0 °F 73% 30.06 in 2.0 mi ENE 16.1 mph - N/A   Mostly Cloudy
11:53 AM -20.0 °F -43.2 °F -26.0 °F 74% 30.06 in 2.0 mi NE 12.7 mph - N/A   Mostly Cloudy
12:53 PM -20.0 °F -44.1 °F -26.0 °F 74% 30.05 in 2.0 mi NE 13.8 mph - N/A   Scattered Clouds
1:53 PM -18.9 °F -42.8 °F -25.1 °F 74% 30.05 in 2.0 mi NE 13.8 mph - N/A   Scattered Clouds
2:53 PM -18.0 °F -41.6 °F -24.0 °F 74% 30.04 in 2.0 mi NE 13.8 mph - N/A   Scattered Clouds
3:53 PM -18.0 °F -40.7 °F -24.0 °F 74% 30.04 in 2.0 mi NE 12.7 mph - N/A   Scattered Clouds
4:00 PM -18.4 °F -41.2 °F -23.8 °F 76% 30.03 in 5.0 mi NE 12.7 mph - N/A   Scattered Clouds
4:53 PM -18.0 °F -42.5 °F -24.0 °F 74% 30.02 in 5.0 mi NE 15.0 mph - N/A   Scattered Clouds
5:53 PM -18.0 °F -42.5 °F -24.0 °F 74% 30.02 in 5.0 mi NE 15.0 mph - N/A   Scattered Clouds
6:53 PM -18.0 °F -43.3 °F -24.0 °F 74% 30.01 in 5.0 mi ENE 16.1 mph - N/A   Scattered Clouds
7:53 PM -18.0 °F -42.5 °F -24.0 °F 74% 30.02 in 5.0 mi NE 15.0 mph - N/A   Scattered Clouds
8:53 PM -18.0 °F -43.3 °F -24.0 °F 74% 30.04 in 5.0 mi NE 16.1 mph - N/A   Partly Cloudy
9:53 PM -18.0 °F -41.6 °F -23.1 °F 78% 30.05 in 5.0 mi NE 13.8 mph - N/A   Clear
10:53 PM -18.0 °F -41.6 °F -23.1 °F 78% 30.05 in 10.0 mi NE 13.8 mph - N/A   Clear
11:53 PM -18.0 °F -39.7 °F -23.1 °F 78% 30.05 in 8.0 mi NE 11.5 mph - N/A   Clear